Starlink 32600

operational
NORAD ID: 62178 Int'l Des: 2024-225 Owner: SPXS Country: US Constellation: starlink
LEOCIRCULAR

About Starlink 32600

Description loading...

Live Position

Loading 3D Globe...

Upcoming Passes

Altitude History

Altitude vs Time

uPlot chart will show altitude changes over time

Two-Line Element Set

1 62178U 24225R 25256.98618308 .00003052 00000-0 26342-3 0 9992
2 62178 69.9998 240.0926 0003194 270.0425 90.0369 14.98339032 43653
Epoch: Sep 13, 2025 • Age: 34 hours

Current Status

Altitude 585.7 km
Velocity 7.57 km/s
Sub-Earth Point 70.09°N, 175.66°W
Launch Date Nov 30, 2024
Age 0.7 years
Type internet

Technical Details

Classification Payload
Mass 730.00 kg
Dry Mass 700.00 kg
Total Mass 730.00 kg
Length 0.30 m
Diameter 4.10 m
Span 29.00 m
Shape Box + pan
Manufacturer SPXS
Bus Type Starlink V2M
Phase Status In Orbit
Owner/State SPXS/US

Large Constellations

Loading constellations...